Time,TemperatureF,DewpointF,PressureIn,WindDirection,WindDirectionDegrees,WindSpeedMPH,WindSpeedGustMPH,Humidity,HourlyPrecipIn,Conditions,Clouds,dailyrainin,SoftwareType,DateUTC
2013-04-09 00:02:00,62.0,52.0,-100.00,East,85,8.0,11.0,71,-99.99,,,-99.99,,2013-04-09 05:02:00,
2013-04-09 00:12:00,62.0,54.0,-100.00,East,80,6.0,8.0,75,-99.99,,,-99.99,,2013-04-09 05:12:00,
2013-04-09 00:22:00,62.0,55.0,-100.00,East,90,6.0,7.0,79,-99.99,,,-99.99,,2013-04-09 05:22:00,
2013-04-09 00:32:00,61.0,56.0,-100.00,ESE,110,10.0,11.0,81,-99.99,,,-99.99,,2013-04-09 05:32:00,
2013-04-09 00:42:00,61.0,56.0,-100.00,ESE,110,10.0,11.0,81,-99.99,,,-99.99,,2013-04-09 05:42:00,
2013-04-09 00:52:00,61.0,57.0,-100.00,ESE,105,18.0,20.0,87,-99.99,,,-99.99,,2013-04-09 05:52:00,
2013-04-09 01:02:00,61.0,57.0,-100.00,ESE,105,18.0,20.0,87,-99.99,,,-99.99,,2013-04-09 06:02:00,
2013-04-09 01:12:00,61.0,58.0,-100.00,ESE,105,14.0,15.0,90,-99.99,,,-99.99,,2013-04-09 06:12:00,
2013-04-09 01:22:00,61.0,58.0,-100.00,ESE,105,10.0,12.0,90,-99.99,,,-99.99,,2013-04-09 06:22:00,
2013-04-09 01:32:00,61.0,58.0,-100.00,ENE,75,7.0,9.0,90,-99.99,,,-99.99,,2013-04-09 06:32:00,
2013-04-09 01:42:00,61.0,58.0,-100.00,ENE,75,7.0,9.0,90,-99.99,,,-99.99,,2013-04-09 06:42:00,
2013-04-09 01:52:00,61.0,58.0,-100.00,East,100,7.0,8.0,90,-99.99,,,-99.99,,2013-04-09 06:52:00,
2013-04-09 02:02:00,61.0,58.0,-100.00,East,100,7.0,8.0,90,-99.99,,,-99.99,,2013-04-09 07:02:00,
2013-04-09 02:12:00,61.0,58.0,-100.00,SE,140,10.0,12.0,91,-99.99,,,-99.99,,2013-04-09 07:12:00,
2013-04-09 02:22:00,61.0,58.0,-100.00,ESE,120,12.0,14.0,92,-99.99,,,-99.99,,2013-04-09 07:22:00,
2013-04-09 02:32:00,60.0,57.0,-100.00,East,95,7.0,8.0,92,-99.99,,,-99.99,,2013-04-09 07:32:00,
2013-04-09 02:42:00,60.0,57.0,-100.00,East,95,7.0,8.0,92,-99.99,,,-99.99,,2013-04-09 07:42:00,
2013-04-09 02:52:00,59.0,57.0,-100.00,East,85,5.0,6.0,92,-99.99,,,-99.99,,2013-04-09 07:52:00,
2013-04-09 03:03:00,59.0,57.0,-100.00,East,85,5.0,6.0,92,-99.99,,,-99.99,,2013-04-09 08:03:00,
2013-04-09 03:12:00,59.0,56.0,-100.00,East,85,5.0,6.0,91,-99.99,,,-99.99,,2013-04-09 08:12:00,
2013-04-09 03:22:00,58.0,56.0,-100.00,ENE,65,6.0,7.0,91,-99.99,,,-99.99,,2013-04-09 08:22:00,
2013-04-09 03:32:00,58.0,55.0,-100.00,East,80,9.0,10.0,91,-99.99,,,-99.99,,2013-04-09 08:32:00,
2013-04-09 03:42:00,58.0,55.0,-100.00,East,80,9.0,10.0,91,-99.99,,,-99.99,,2013-04-09 08:42:00,
2013-04-09 03:52:00,58.0,56.0,-100.00,ENE,70,10.0,11.0,93,-99.99,,,-99.99,,2013-04-09 08:52:00,
2013-04-09 04:02:00,58.0,56.0,-100.00,ENE,70,10.0,11.0,93,-99.99,,,-99.99,,2013-04-09 09:02:00,
2013-04-09 04:12:00,58.0,57.0,-100.00,NE,55,7.0,9.0,94,-99.99,,,-99.99,,2013-04-09 09:12:00,
2013-04-09 04:22:00,59.0,57.0,-100.00,ENE,75,5.0,6.0,94,-99.99,,,-99.99,,2013-04-09 09:22:00,
2013-04-09 04:33:00,59.0,57.0,-100.00,NNE,15,4.0,4.0,94,-99.99,,,-99.99,,2013-04-09 09:33:00,
2013-04-09 04:43:00,59.0,57.0,-100.00,NNE,15,4.0,4.0,94,-99.99,,,-99.99,,2013-04-09 09:43:00,
2013-04-09 04:52:00,58.0,56.0,-100.00,NE,45,7.0,9.0,94,-99.99,,,-99.99,,2013-04-09 09:52:00,
2013-04-09 05:03:00,58.0,56.0,-100.00,NE,45,7.0,9.0,94,-99.99,,,-99.99,,2013-04-09 10:03:00,
2013-04-09 05:12:00,58.0,56.0,-100.00,ENE,65,8.0,9.0,94,-99.99,,,-99.99,,2013-04-09 10:12:00,
2013-04-09 05:23:00,57.0,55.0,-100.00,ENE,65,10.0,11.0,94,-99.99,,,-99.99,,2013-04-09 10:23:00,
2013-04-09 05:33:00,57.0,55.0,-100.00,NE,40,8.0,9.0,94,-99.99,,,-99.99,,2013-04-09 10:33:00,
2013-04-09 05:42:00,57.0,55.0,-100.00,NE,40,8.0,9.0,94,-99.99,,,-99.99,,2013-04-09 10:42:00,
2013-04-09 05:52:00,56.0,55.0,-100.00,ENE,70,9.0,12.0,94,-99.99,,,-99.99,,2013-04-09 10:52:00,
2013-04-09 06:02:00,56.0,55.0,-100.00,ENE,70,9.0,12.0,94,-99.99,,,-99.99,,2013-04-09 11:02:00,
2013-04-09 06:12:00,56.0,54.0,-100.00,NE,55,7.0,10.0,94,-99.99,,,-99.99,,2013-04-09 11:12:00,
2013-04-09 06:22:00,55.0,54.0,-100.00,ENE,65,12.0,15.0,94,-99.99,,,-99.99,,2013-04-09 11:22:00,
2013-04-09 06:32:00,56.0,54.0,-100.00,East,80,14.0,15.0,94,-99.99,,,-99.99,,2013-04-09 11:32:00,
2013-04-09 06:42:00,56.0,54.0,-100.00,East,80,14.0,15.0,94,-99.99,,,-99.99,,2013-04-09 11:42:00,
2013-04-09 06:52:00,56.0,54.0,-100.00,East,85,11.0,14.0,94,-99.99,,,-99.99,,2013-04-09 11:52:00,
2013-04-09 07:02:00,56.0,54.0,-100.00,East,85,11.0,14.0,94,-99.99,,,-99.99,,2013-04-09 12:02:00,
2013-04-09 07:12:00,56.0,55.0,-100.00,East,80,12.0,14.0,94,-99.99,,,-99.99,,2013-04-09 12:12:00,
2013-04-09 07:22:00,56.0,55.0,-100.00,East,85,9.0,12.0,94,-99.99,,,-99.99,,2013-04-09 12:22:00,
2013-04-09 07:32:00,57.0,55.0,-100.00,East,85,9.0,12.0,94,-99.99,,,-99.99,,2013-04-09 12:32:00,
2013-04-09 07:42:00,57.0,55.0,-100.00,East,85,9.0,12.0,94,-99.99,,,-99.99,,2013-04-09 12:42:00,
2013-04-09 07:52:00,57.0,55.0,-100.00,East,100,7.0,9.0,94,-99.99,,,-99.99,,2013-04-09 12:52:00,
2013-04-09 08:02:00,57.0,55.0,-100.00,East,100,7.0,9.0,94,-99.99,,,-99.99,,2013-04-09 13:02:00,
2013-04-09 08:12:00,57.0,55.0,-100.00,East,95,8.0,10.0,94,-99.99,,,-99.99,,2013-04-09 13:12:00,
2013-04-09 08:22:00,57.0,55.0,-100.00,East,100,7.0,10.0,94,-99.99,,,-99.99,,2013-04-09 13:22:00,
2013-04-09 08:32:00,58.0,56.0,-100.00,ESE,110,11.0,15.0,94,-99.99,,,-99.99,,2013-04-09 13:32:00,
2013-04-09 08:42:00,58.0,56.0,-100.00,ESE,110,11.0,15.0,94,-99.99,,,-99.99,,2013-04-09 13:42:00,
2013-04-09 08:52:00,58.0,56.0,-100.00,East,100,9.0,11.0,94,-99.99,,,-99.99,,2013-04-09 13:52:00,
2013-04-09 09:03:00,58.0,56.0,-100.00,East,100,9.0,11.0,94,-99.99,,,-99.99,,2013-04-09 14:03:00,
2013-04-09 09:12:00,58.0,56.0,-100.00,East,100,9.0,11.0,94,-99.99,,,-99.99,,2013-04-09 14:12:00,
2013-04-09 09:22:00,58.0,56.0,-100.00,ESE,105,11.0,14.0,94,-99.99,,,-99.99,,2013-04-09 14:22:00,
2013-04-09 09:32:00,58.0,56.0,-100.00,East,85,4.0,6.0,94,-99.99,,,-99.99,,2013-04-09 14:32:00,
2013-04-09 09:42:00,58.0,56.0,-100.00,East,85,4.0,6.0,94,-99.99,,,-99.99,,2013-04-09 14:42:00,
2013-04-09 09:52:00,58.0,56.0,-100.00,SE,125,7.0,8.0,94,-99.99,,,-99.99,,2013-04-09 14:52:00,
2013-04-09 10:02:00,58.0,56.0,-100.00,SE,125,7.0,8.0,94,-99.99,,,-99.99,,2013-04-09 15:02:00,
2013-04-09 10:12:00,58.0,57.0,-100.00,East,100,4.0,4.0,94,-99.99,,,-99.99,,2013-04-09 15:12:00,
2013-04-09 10:22:00,59.0,57.0,-100.00,East,100,6.0,7.0,94,-99.99,,,-99.99,,2013-04-09 15:22:00,
2013-04-09 10:33:00,59.0,58.0,-100.00,NNE,25,3.0,4.0,94,-99.99,,,-99.99,,2013-04-09 15:33:00,
2013-04-09 10:43:00,59.0,58.0,-100.00,NNE,25,3.0,4.0,94,-99.99,,,-99.99,,2013-04-09 15:43:00,
2013-04-09 10:53:00,61.0,59.0,-100.00,ESE,110,3.0,4.0,94,-99.99,,,-99.99,,2013-04-09 15:53:00,
2013-04-09 11:03:00,61.0,59.0,-100.00,ESE,110,3.0,4.0,94,-99.99,,,-99.99,,2013-04-09 16:03:00,
2013-04-09 11:13:00,62.0,60.0,-100.00,ENE,70,1.0,2.0,94,-99.99,,,-99.99,,2013-04-09 16:13:00,
2013-04-09 11:23:00,62.0,61.0,-100.00,North,0,2.0,2.0,94,-99.99,,,-99.99,,2013-04-09 16:23:00,
2013-04-09 11:33:00,61.0,59.0,-100.00,NNE,20,6.0,8.0,93,-99.99,,,-99.99,,2013-04-09 16:33:00,
2013-04-09 11:42:00,61.0,59.0,-100.00,NNE,20,6.0,8.0,93,-99.99,,,-99.99,,2013-04-09 16:42:00,
2013-04-09 11:53:00,61.0,59.0,-100.00,NNE,20,4.0,6.0,93,-99.99,,,-99.99,,2013-04-09 16:53:00,
2013-04-09 12:02:00,61.0,59.0,-100.00,NNE,20,4.0,6.0,93,-99.99,,,-99.99,,2013-04-09 17:02:00,
2013-04-09 12:12:00,61.0,59.0,-100.00,NE,55,3.0,4.0,93,-99.99,,,-99.99,,2013-04-09 17:12:00,
2013-04-09 12:23:00,61.0,59.0,-100.00,ENE,65,4.0,6.0,92,-99.99,,,-99.99,,2013-04-09 17:23:00,
2013-04-09 12:32:00,63.0,60.0,-100.00,NNE,25,4.0,5.0,89,-99.99,,,-99.99,,2013-04-09 17:32:00,
2013-04-09 12:42:00,63.0,60.0,-100.00,NNE,25,4.0,5.0,89,-99.99,,,-99.99,,2013-04-09 17:42:00,
2013-04-09 12:53:00,65.0,59.0,-100.00,NE,45,4.0,5.0,82,-99.99,,,-99.99,,2013-04-09 17:53:00,
2013-04-09 13:02:00,65.0,59.0,-100.00,NE,45,4.0,5.0,82,-99.99,,,-99.99,,2013-04-09 18:02:00,
2013-04-09 13:12:00,67.0,60.0,-100.00,NNW,335,7.0,7.0,77,-99.99,,,-99.99,,2013-04-09 18:12:00,
2013-04-09 13:22:00,61.0,53.0,-100.00,NW,325,21.0,23.0,76,-99.99,,,-99.99,,2013-04-09 18:22:00,
2013-04-09 13:33:00,56.0,52.0,-100.00,NNW,345,12.0,15.0,86,-99.99,,,-99.99,,2013-04-09 18:33:00,
2013-04-09 13:43:00,56.0,52.0,-100.00,NNW,345,12.0,15.0,86,-99.99,,,-99.99,,2013-04-09 18:43:00,
2013-04-09 13:52:00,56.0,52.0,-100.00,NNW,345,12.0,15.0,86,-99.99,,,-99.99,,2013-04-09 18:52:00,
2013-04-09 14:02:00,52.0,49.0,-100.00,North,350,12.0,14.0,88,-99.99,,,-99.99,,2013-04-09 19:02:00,
2013-04-09 14:12:00,52.0,49.0,-100.00,North,350,12.0,14.0,88,-99.99,,,-99.99,,2013-04-09 19:12:00,
2013-04-09 14:22:00,52.0,49.0,-100.00,North,350,12.0,14.0,88,-99.99,,,-99.99,,2013-04-09 19:22:00,
2013-04-09 14:32:00,52.0,49.0,-100.00,North,350,12.0,14.0,88,-99.99,,,-99.99,,2013-04-09 19:32:00,
2013-04-09 14:41:00,52.0,49.0,-100.00,North,350,12.0,14.0,88,-99.99,,,-99.99,,2013-04-09 19:41:00,
2013-04-09 14:53:00,48.0,46.0,-100.00,North,0,13.0,16.0,90,-99.99,,,-99.99,,2013-04-09 19:53:00,
2013-04-09 15:02:00,48.0,45.0,-100.00,North,10,15.0,19.0,90,-99.99,,,-99.99,,2013-04-09 20:02:00,
2013-04-09 15:12:00,47.0,45.0,-100.00,North,0,15.0,17.0,91,-99.99,,,-99.99,,2013-04-09 20:12:00,
2013-04-09 15:22:00,48.0,45.0,-100.00,North,0,16.0,18.0,91,-99.99,,,-99.99,,2013-04-09 20:22:00,
2013-04-09 15:33:00,48.0,46.0,-100.00,North,0,11.0,12.0,92,-99.99,,,-99.99,,2013-04-09 20:33:00,
2013-04-09 15:42:00,48.0,46.0,-100.00,North,0,11.0,12.0,92,-99.99,,,-99.99,,2013-04-09 20:42:00,
2013-04-09 15:52:00,48.0,46.0,-100.00,NNE,20,9.0,14.0,92,-99.99,,,-99.99,,2013-04-09 20:52:00,
2013-04-09 16:02:00,48.0,46.0,-100.00,NNE,20,9.0,14.0,92,-99.99,,,-99.99,,2013-04-09 21:02:00,
2013-04-09 16:13:00,47.0,45.0,-100.00,North,0,12.0,16.0,92,-99.99,,,-99.99,,2013-04-09 21:13:00,
2013-04-09 16:22:00,47.0,45.0,-100.00,North,0,12.0,16.0,92,-99.99,,,-99.99,,2013-04-09 21:22:00,
2013-04-09 16:33:00,48.0,46.0,-100.00,NNE,20,7.0,9.0,92,-99.99,,,-99.99,,2013-04-09 21:33:00,
2013-04-09 16:42:00,48.0,46.0,-100.00,NNE,20,7.0,9.0,92,-99.99,,,-99.99,,2013-04-09 21:42:00,
2013-04-09 16:52:00,46.0,44.0,-100.00,North,10,16.0,18.0,91,-99.99,,,-99.99,,2013-04-09 21:52:00,
2013-04-09 17:03:00,46.0,44.0,-100.00,North,10,16.0,18.0,91,-99.99,,,-99.99,,2013-04-09 22:03:00,
2013-04-09 17:12:00,46.0,44.0,-100.00,NE,40,12.0,15.0,91,-99.99,,,-99.99,,2013-04-09 22:12:00,
2013-04-09 17:23:00,46.0,44.0,-100.00,NE,45,13.0,18.0,91,-99.99,,,-99.99,,2013-04-09 22:23:00,
2013-04-09 17:33:00,45.0,43.0,-100.00,NNE,30,14.0,16.0,91,-99.99,,,-99.99,,2013-04-09 22:33:00,
2013-04-09 17:42:00,45.0,43.0,-100.00,NNE,30,14.0,16.0,91,-99.99,,,-99.99,,2013-04-09 22:42:00,
2013-04-09 17:52:00,45.0,43.0,-100.00,NE,35,15.0,17.0,92,-99.99,,,-99.99,,2013-04-09 22:52:00,
2013-04-09 18:03:00,45.0,43.0,-100.00,NE,35,15.0,17.0,92,-99.99,,,-99.99,,2013-04-09 23:03:00,
2013-04-09 18:12:00,45.0,43.0,-100.00,NE,40,14.0,17.0,93,-99.99,,,-99.99,,2013-04-09 23:12:00,
2013-04-09 18:22:00,45.0,43.0,-100.00,NE,45,11.0,13.0,93,-99.99,,,-99.99,,2013-04-09 23:22:00,
2013-04-09 18:32:00,45.0,43.0,-100.00,NE,35,13.0,16.0,93,-99.99,,,-99.99,,2013-04-09 23:32:00,
2013-04-09 18:42:00,45.0,43.0,-100.00,NE,35,13.0,16.0,93,-99.99,,,-99.99,,2013-04-09 23:42:00,
2013-04-09 18:52:00,45.0,43.0,-100.00,NNE,25,14.0,16.0,93,-99.99,,,-99.99,,2013-04-09 23:52:00,
2013-04-09 19:03:00,45.0,43.0,-100.00,NNE,25,14.0,16.0,93,-99.99,,,-99.99,,2013-04-10 00:03:00,
2013-04-09 19:12:00,45.0,43.0,-100.00,NNE,25,14.0,16.0,93,-99.99,,,-99.99,,2013-04-10 00:12:00,
2013-04-09 19:22:00,44.0,43.0,-100.00,NNE,20,11.0,14.0,93,-99.99,,,-99.99,,2013-04-10 00:22:00,
2013-04-09 19:32:00,44.0,42.0,-100.00,NE,40,16.0,19.0,93,-99.99,,,-99.99,,2013-04-10 00:32:00,
2013-04-09 19:42:00,44.0,42.0,-100.00,NE,40,16.0,19.0,93,-99.99,,,-99.99,,2013-04-10 00:42:00,
2013-04-09 19:52:00,44.0,42.0,-100.00,NE,40,14.0,17.0,93,-99.99,,,-99.99,,2013-04-10 00:52:00,
2013-04-09 20:02:00,44.0,42.0,-100.00,NE,40,14.0,17.0,93,-99.99,,,-99.99,,2013-04-10 01:02:00,
2013-04-09 20:12:00,44.0,42.0,-100.00,NE,45,9.0,9.0,93,-99.99,,,-99.99,,2013-04-10 01:12:00,
2013-04-09 20:23:00,44.0,42.0,-100.00,NE,40,8.0,11.0,93,-99.99,,,-99.99,,2013-04-10 01:23:00,
2013-04-09 20:32:00,44.0,43.0,-100.00,ENE,60,13.0,16.0,94,-99.99,,,-99.99,,2013-04-10 01:32:00,
2013-04-09 20:42:00,44.0,43.0,-100.00,ENE,60,13.0,16.0,94,-99.99,,,-99.99,,2013-04-10 01:42:00,
2013-04-09 20:52:00,44.0,43.0,-100.00,ENE,75,8.0,11.0,94,-99.99,,,-99.99,,2013-04-10 01:52:00,
2013-04-09 21:02:00,44.0,43.0,-100.00,ENE,75,8.0,11.0,94,-99.99,,,-99.99,,2013-04-10 02:02:00,
2013-04-09 21:12:00,44.0,43.0,-100.00,NE,55,6.0,8.0,94,-99.99,,,-99.99,,2013-04-10 02:12:00,
2013-04-09 21:22:00,44.0,43.0,-100.00,ENE,65,7.0,9.0,94,-99.99,,,-99.99,,2013-04-10 02:22:00,
2013-04-09 21:32:00,44.0,43.0,-100.00,NNE,15,6.0,9.0,94,-99.99,,,-99.99,,2013-04-10 02:32:00,
2013-04-09 21:42:00,44.0,43.0,-100.00,NNE,15,6.0,9.0,94,-99.99,,,-99.99,,2013-04-10 02:42:00,
2013-04-09 21:52:00,44.0,42.0,-100.00,North,10,8.0,11.0,94,-99.99,,,-99.99,,2013-04-10 02:52:00,
2013-04-09 22:02:00,44.0,42.0,-100.00,North,10,8.0,11.0,94,-99.99,,,-99.99,,2013-04-10 03:02:00,
2013-04-09 22:12:00,44.0,42.0,-100.00,NNE,30,6.0,7.0,94,-99.99,,,-99.99,,2013-04-10 03:12:00,
2013-04-09 22:22:00,44.0,42.0,-100.00,NNE,15,7.0,8.0,94,-99.99,,,-99.99,,2013-04-10 03:22:00,
2013-04-09 22:33:00,44.0,42.0,-100.00,North,0,9.0,11.0,94,-99.99,,,-99.99,,2013-04-10 03:33:00,
2013-04-09 22:43:00,44.0,42.0,-100.00,North,0,9.0,11.0,94,-99.99,,,-99.99,,2013-04-10 03:43:00,
2013-04-09 22:52:00,43.0,42.0,-100.00,NNE,30,12.0,14.0,94,-99.99,,,-99.99,,2013-04-10 03:52:00,
2013-04-09 23:03:00,43.0,42.0,-100.00,NNE,30,12.0,14.0,94,-99.99,,,-99.99,,2013-04-10 04:03:00,
2013-04-09 23:13:00,43.0,42.0,-100.00,NNE,15,9.0,14.0,94,-99.99,,,-99.99,,2013-04-10 04:13:00,
2013-04-09 23:23:00,43.0,42.0,-100.00,North,0,10.0,12.0,94,-99.99,,,-99.99,,2013-04-10 04:23:00,
2013-04-09 23:33:00,43.0,41.0,-100.00,North,0,12.0,18.0,94,-99.99,,,-99.99,,2013-04-10 04:33:00,
2013-04-09 23:42:00,43.0,41.0,-100.00,North,0,12.0,18.0,94,-99.99,,,-99.99,,2013-04-10 04:42:00,
2013-04-09 23:52:00,43.0,41.0,-100.00,North,0,9.0,10.0,94,-99.99,,,-99.99,,2013-04-10 04:52:00,